Location: Albuquerque Trailhead
(34.7934°N, 106.3736°W)
Time: 03:28:35
(UTC+00:00)

OAO 1 - Pass Details

Date: 20 June 2021
Orbit: 773 x 784 km, 35.0° (Epoch: 29 July)

Event Time Altitude Azimuth Distance (km) Brightness Sun altitude
Exits shadow 09:09:08 55° 276° (W) 923 4.7 -25.0°
Maximum altitude 09:10:23 87° 360° (N) 777 4.4 -24.8°
Drops below altitude 10° 09:15:53 10° 91° (E) 2,316 7.3 -24.2°
Sets 09:18:21 0° 92° (E) 3,244 8.2 -24.0°
